Time (hhmmss), Depth12, Depth35, dec_lat, dec_lon, EDO_knt, SSCND, SSTMP, GPS_COG, GPS_SOG, Gyro, Air_Temp, IMET_BPR, HRH, Salinity, Wnd_Dir, Wnd_Spd, 
08:22:05, 229.6, 230.5, 43.296978, 15.240595, , +46.4103, , 032.3, 7.18, 034.4, , 1005.19, , , 65.7, 109.9582, 
08:23:05, 230.9, 250.1, 43.298493, 15.242266, , +46.4036, , 043.7, 7.18, 043.1, , 1005.15, , , 113.4, 7.9267, 
08:24:05, 231.3, 232.2, 43.299995, 15.244261, , +46.4000, , 046.2, 7.22, 043.2, , 1005.26, , , 102.4, 6.5955, 
08:25:05, 231.8, 00.00, 43.301451, 15.246215, , +46.3915, , 045.4, 7.27, 043.0, , 1005.40, , , 103.4, 5.1888, 
08:26:05, 232.4, 253.0, 43.302896, 15.248158, , +46.3818, , 045.1, 7.43, 044.2, , 1005.45, , , 104.7, 5.2611, 
08:27:05, 232.6, 252.9, 43.304311, 15.250123, , +46.3757, , 047.7, 7.26, 045.7, , 1005.42, , , 122.0, 6.1087, 
08:28:05, 233.0, 00.00, 43.305658, 15.252045, , +46.3666, , 044.2, 7.37, 045.2, , 1005.40, , , 97.1, 7.2621, 
08:29:05, 251.1, 254.6, 43.307076, 15.254031, , +46.3580, , 044.3, 7.35, 044.8, , 1005.45, , , 107.2, 6.2902, 
08:30:05, 234.1, 252.5, 43.308533, 15.255985, , +46.3555, , 043.9, 7.26, 044.8, , 1005.53, , , 116.5, 7.3282, 
08:31:05, 234.2, 256.1, 43.309963, 15.257958, , +46.3922, , 045.7, 7.14, 045.5, , 1005.36, , , 106.7, 5.7549, 
08:32:05, 235.1, 236.0, 43.311373, 15.259886, , +������j, , 044.3, 6.92, 045.7, , 1005.52, , , 81.4, 6.1212, 
08:33:05, 235.7, 255.0, 43.312768, 15.261771, , +46.4167, , 043.1, 7.06, 044.9, , 1005.46, , , 107.4, 6.1428, 
08:34:05, 235.7, 258.0, 43.314178, 15.263641, , +46.4260, , 044.7, 7.13, 045.8, , 1005.37, , , 112.6, 6.8190, 
08:35:05, 235.7, 258.0, 43.315550, 15.265566, , +46.4238, , 044.4, 7.13, 045.6, , 1005.54, , , 98.2, 6.8471, 
08:36:05, 236.0, 255.6, 43.316948, 15.267475, , +46.4139, , 045.1, 7.07, 045.1, , 1005.50, , , 106.1, 6.1940, 
08:37:05, 253.8, 257.2, 43.318329, 15.269393, , +46.4130, , 046.1, 7.03, 045.4, , 1005.47, , , 103.1, 6.7035, 
08:38:05, 00.00, 257.3, 43.319706, 15.271286, , +46.4054, , 046.1, 7.09, 045.3, , 1005.58, , , 97.0, 6.3474, 
08:39:05, 236.8, 237.8, 43.321055, 15.273176, , +������j, , 047.4, 6.90, 045.7, , 1005.52, , , 97.8, 6.2196, 
08:40:05, 236.6, 255.4, 43.322383, 15.275085, , +46.4121, , 045.6, 6.94, 045.0, , 1005.60, , , 85.1, 6.1354, 
08:41:05, 237.2, 256.3, 43.323748, 15.276985, , +46.3976, , 042.4, 6.98, 045.3, , 1005.67, , , 95.2, 6.0362, 
08:42:05, 237.2, 00.00, 43.325110, 15.278916, , +46.3971, , 047.3, 7.06, 045.3, , 1005.74, , , 84.0, 6.0018, 
08:43:05, 237.5, 256.6, 43.326491, 15.280858, , +46.3808, , 044.2, 7.13, 045.2, , 1005.71, , , 96.3, 5.1206, 
08:44:05, 237.8, 256.8, 43.327915, 15.282713, , +46.3547, , 039.5, 6.98, 036.5, , 1005.66, , , 103.2, 6.6614, 
08:45:05, 237.8, 256.8, 43.329506, 15.284166, , +46.2358, , 028.0, 6.69, 028.4, , 1005.77, , , 90.3, 6.7655, 
08:46:05, 237.8, 256.9, 43.331200, 15.285260, , +��I���j, , 023.6, 6.67, 028.9, , 1005.82, , , 108.8, 7.6525, 
08:47:05, 238.5, 238.8, 43.332815, 15.286431, , +46.2413, , 030.5, 6.54, 030.9, , 1005.81, , , 106.1, 6.8801, 
08:48:05, 238.4, 260.2, 43.334405, 15.287640, , +46.2484, , 029.7, 6.54, 030.7, , 1005.70, , , 104.3, 7.3411, 
08:49:05, 238.0, 239.0, 43.335988, 15.288858, , +46.2680, , 029.4, 6.50, 030.2, , 1005.87, , , 84.8, 6.6091, 
08:50:05, 238.4, 260.1, 43.337575, 15.290091, , +��I�j, , 029.5, 6.55, 029.8, , 1005.84, , , 86.4, 6.0493, 
08:51:05, 238.6, 239.1, 43.339185, 15.291303, , +46.2977, , 029.2, 6.53, 029.9, , 1005.93, , , 101.8, 6.2234, 
08:52:05, 256.4, 260.1, 43.340766, 15.292528, , +46.3177, , 028.2, 6.49, 030.4, , 1005.83, , , 101.3, 6.3706, 
08:53:05, 238.5, 260.0, 43.342333, 15.293768, , +46.3225, , 028.2, 6.59, 030.2, , 1005.91, , , 99.4, 5.9526, 
08:54:05, 238.5, 259.9, 43.343921, 15.294963, , +46.3600, , 030.6, 6.40, 030.6, , 1005.89, , , 95.0, 7.2962, 
08:55:05, 238.7, 239.7, 43.345489, 15.296215, , +46.4084, , 028.9, 6.42, 029.5, , 1006.02, , , 90.3, 7.9123, 
08:59:29, 239.1, 265.2, 43.352668, 15.301855, , , , 029.3, 6.65, 029.4, , , , , , , 
09:00:29, 239.2, 265.3, 43.354256, 15.303100, , +46.3757, , 031.4, 6.56, 030.2, , 1005.88, , , 98.3, 7.5827, 
09:01:29, 239.2, 265.4, 43.355840, 15.304406, , +46.3669, , 033.0, 6.64, 028.6, , 1006.04, , , 86.6, 8.5336, 
09:02:29, 239.3, 00.00, 43.357506, 15.305438, , +46.3489, , 013.7, 6.52, 012.6, , 1005.95, , , 66.4, 6.7380, 
09:03:29, 239.4, 00.00, 43.359340, 15.305810, , +46.3341, , 003.9, 6.61, 008.9, , 1006.00, , , 85.1, 6.8218, 
09:04:29, 239.4, 266.1, 43.361191, 15.306175, , +46.2879, , 008.6, 6.78, 010.9, , 1006.02, , , 103.1, 9.2663, 
09:05:29, 239.7, 240.7, 43.363006, 15.306635, , +46.2863, , 010.8, 6.70, 009.8, , 1006.08, , , 96.9, 8.4372, 
09:06:29, 239.4, 264.3, 43.364836, 15.306963, , +46.2684, , 007.7, 6.81, 009.4, , 1006.07, , , 86.8, 7.5924, 
09:07:29, 239.8, 265.0, 43.366673, 15.307350, , +46.2642, , 008.2, 6.85, 010.6, , 1006.10, , , 101.6, 9.5979, 
09:08:29, 239.6, 240.6, 43.368529, 15.307730, , +��I���j, , 006.9, 6.74, 009.7, , 1006.20, , , 102.6, 8.2223, 
09:09:29, 239.9, 266.6, 43.370373, 15.308091, , +46.2455, , 008.0, 6.77, 010.5, , 1006.07, , , 95.5, 9.2263, 
09:10:29, 240.2, 267.0, 43.372185, 15.308438, , +46.2397, , 009.3, 6.51, 010.5, , 1006.16, , , 86.5, 8.6225, 
09:11:29, 240.4, 267.5, 43.373981, 15.308811, , +46.2260, , 008.4, 6.35, 010.0, , 1006.14, , , 88.2, 9.4588, 
09:12:29, 240.6, 268.1, 43.375735, 15.309126, , +46.2741, , 008.1, 6.35, 010.3, , 1006.02, , , 98.0, 9.9725, 
09:13:29, 240.8, 268.0, 43.377480, 15.309428, , +46.2613, , 007.9, 6.36, 009.8, , 1006.11, , , 99.4, 11.7749, 
09:14:29, 240.2, 265.8, 43.379251, 15.309803, , +46.2700, , 006.7, 6.59, 010.7, , 1006.21, , , 94.8, 11.1085, 
09:15:29, 239.3, 264.1, 43.380990, 15.310526, , +��I���j, , 030.2, 6.71, 031.8, , 1006.06, , , 116.6, 10.1670, 
09:16:29, 238.7, 260.8, 43.382435, 15.311991, , +46.2688, , 041.1, 6.38, 039.3, , 1006.15, , , 113.8, 10.4061, 
09:17:29, 238.6, 239.5, 43.383796, 15.313653, , +46.2678, , 039.9, 6.58, 039.3, , 1006.03, , , 89.4, 8.8371, 
09:18:29, 238.4, 239.4, 43.385163, 15.315290, , +46.2730, , 040.0, 6.45, 039.4, , 1005.97, , , 92.7, 8.8212, 
09:19:29, 238.0, 260.6, 43.386496, 15.316966, , +46.2591, , 044.1, 6.56, 041.0, , 1006.10, , , 102.9, 9.6289, 
09:20:29, 238.0, 259.9, 43.387833, 15.318638, , +46.2549, , 041.1, 6.39, 039.9, , 1006.06, , , 89.7, 7.7681, 
09:21:29, 237.9, 259.7, 43.389165, 15.320300, , +46.2334, , 041.1, 6.56, 041.1, , 1006.15, , , 101.3, 9.2165, 
09:22:30, 238.0, 259.4, 43.390493, 15.322081, , +46.2290, , 042.5, 6.71, 040.4, , 1006.10, , , 88.1, 8.3326, 
09:23:18, 237.5, 259.1, 43.391528, 15.323468, , +��I���j, , 046.3, 6.57, 040.7, , 1006.15, , , 75.5, 8.5219, 
09:24:17, 237.6, 259.1, 43.392811, 15.325164, , +46.2284, , 043.3, 6.66, 038.8, , 1006.33, , , 76.8, 8.2724, 
09:25:17, 237.1, 258.6, 43.394156, 15.326833, , , , 041.1, 6.47, 038.2, , , , , 77.2, 8.1306, 
09:26:17, 237.2, 263.7, 43.395588, 15.328401, , +46.2621, , 037.8, 6.77, 039.3, , 1005.89, , , 77.2, 8.1306, 
09:27:19, 237.2, 263.8, 43.397045, 15.330141, , +46.2231, , 041.4, 6.94, 041.9, , 1006.33, , , 73.1, 112.7470, 
09:27:34, 237.0, 263.6, 43.397425, 15.330606, , +46.2231, , 040.8, 6.89, 041.5, , 1006.02, , , 93.1, 8.5254, 
09:28:33, 237.0, 263.6, 43.398856, 15.332298, , +46.2063, , 042.6, 6.89, 040.5, , 1006.01, , , 101.3, 10.2322, 
09:29:33, 236.9, 262.4, 43.400320, 15.334029, , +46.2225, , 041.9, 6.91, 040.0, , 1006.24, , , 91.2, 9.6920, 
09:30:33, 236.7, 237.8, 43.401811, 15.335750, , +46.2198, , 039.5, 7.17, 039.6, , 1006.04, , , 94.4, 9.6446, 
09:31:33, 254.8, 262.9, 43.403330, 15.337473, , +46.2341, , 041.1, 7.21, 039.8, , 1006.16, , , 96.7, 9.9462, 
09:32:33, 00.00, 263.2, 43.404868, 15.339190, , +46.2820, , 039.2, 7.07, 039.9, , 1006.25, , , 104.2, 9.8829, 
09:33:33, 235.8, 255.6, 43.406401, 15.340900, , +��i���j, , 039.6, 7.24, 040.1, 6.863, 1006.27, 45.328, , 104.8, 9.8489, 
09:34:33, 235.6, 255.7, 43.407931, 15.342656, , +46.3082, , 039.9, 7.11, 040.4, , 1006.20, , , 89.9, 10.0590, 
09:35:33, 235.4, 255.5, 43.409491, 15.344368, , +46.3224, , 038.9, 7.29, 039.4, , 1006.20, , , 94.3, 10.4250, 
09:35:58, 235.5, 255.5, 43.410158, 15.345075, , +46.3189, , 038.8, 7.29, 040.5, , 1006.25, , , 95.4, 10.5864, 
09:36:56, 235.2, 254.3, 43.411583, 15.346648, , +��i���j, , 038.1, 7.45, 040.2, , 1006.30, , , 103.9, 9.4608, 
09:37:56, 235.0, 254.3, 43.413173, 15.348380, , +46.3374, , 036.7, 7.17, 039.4, , 1006.22, , , 103.0, 9.0638, 
09:38:56, 234.6, 254.0, 43.414753, 15.350038, , +46.3463, , 036.8, 7.30, 039.9, , 1006.23, , , 102.3, 9.7659, 
09:39:56, 234.3, 253.7, 43.416346, 15.351676, , +46.3503, , 036.3, 7.14, 040.0, , 1006.28, , , 110.1, 10.2119, 
09:40:56, 00.00, 253.2, 43.417940, 15.353336, , +��i�ªj, , 036.5, 7.26, 040.7, , 1006.36, , , 108.3, 10.3538, 
09:41:56, 233.4, 253.2, 43.419528, 15.355113, , +46.3673, , 041.3, 7.35, 043.5, , 1006.27, , , 112.0, 9.5874, 
09:42:56, 233.0, 257.4, 43.421053, 15.356960, , +46.3769, , 041.8, 7.40, 041.4, , 1006.25, , , 99.7, 9.5594, 
09:43:57, 232.9, 253.3, 43.422628, 15.358715, , +46.3576, , 039.9, 7.32, 042.6, , 1006.07, , , 97.8, 9.4179, 
09:44:57, 249.3, 253.0, 43.424156, 15.360496, , +46.3692, , 041.1, 7.26, 042.1, , 1006.30, , , 103.7, 7.3219, 
09:45:24, 232.2, 251.5, 43.424965, 15.361431, , +46.3807, , 041.7, 7.08, 042.8, , 1006.25, , , 104.3, 7.2860, 
09:46:23, 231.5, 249.4, 43.426455, 15.363180, , +46.3823, , 039.9, 7.32, 041.7, , 1006.25, , , 92.8, 10.6821, 
09:47:23, 230.9, 248.3, 43.428020, 15.364948, , +46.3943, , 039.0, 7.43, 041.7, , 1006.33, , , 94.4, 8.8519, 
09:48:23, 230.5, 249.9, 43.429565, 15.366775, , +46.3947, , 042.5, 7.27, 042.4, , 1006.54, , , 104.9, 9.0668, 
09:49:23, 230.0, 247.4, 43.431121, 15.368596, , +46.4120, , 039.3, 7.31, 042.3, , 1006.36, , , 83.7, 8.6401, 
09:50:23, 229.5, 246.7, 43.432653, 15.370398, , +46.3723, , 039.0, 7.29, 042.1, , 1006.28, , , 85.5, 7.7378, 
09:51:23, 228.7, 229.8, 43.434204, 15.372135, , +46.3723, , 039.8, 7.23, 042.1, , 1006.50, , , 88.7, 9.8182, 
09:52:23, 227.9, 245.1, 43.435750, 15.373881, , +46.3770, , 039.5, 7.17, 040.9, , 1006.41, , , 100.1, 9.5811, 
09:53:23, 227.5, 244.0, 43.437320, 15.375611, , +46.3727, , 039.3, 7.18, 042.9, , 1006.38, , , 100.6, 9.5122, 
09:54:23, 226.9, 243.1, 43.438836, 15.377410, , +46.3796, , 041.6, 7.29, 043.4, , 1006.48, , , 95.6, 10.0608, 
09:55:23, 226.4, 242.9, 43.440390, 15.379191, , +��i���j, , 038.8, 7.31, 040.7, , 1006.45, , , 87.4, 9.1221, 
09:56:23, 225.8, 242.5, 43.442013, 15.380903, , +46.3856, , 040.9, 7.23, 042.6, , 1006.48, , , 95.8, 9.6861, 
09:57:23, 225.4, 241.2, 43.443543, 15.382656, , +46.3799, , 038.5, 7.14, 041.8, , 1006.46, , , 101.9, 10.2626, 
09:58:23, 225.0, 240.9, 43.445078, 15.384338, , +46.3731, , 039.3, 7.03, 041.2, , 1006.51, , , 92.0, 10.5237, 
09:59:23, 224.1, 225.2, 43.446635, 15.386046, , +46.3661, , 038.0, 7.37, 039.4, , 1006.54, , , 93.4, 10.5002, 
10:00:23, 223.4, 241.3, 43.448243, 15.387686, , +46.3260, , 035.8, 7.27, 039.3, , 1006.47, , , 101.0, 10.5431, 
10:01:23, 223.1, 240.6, 43.449841, 15.389353, , +46.3153, , 036.9, 7.04, 039.5, , 1006.60, , , 103.2, 10.5079, 
10:02:23, 222.3, 243.6, 43.451431, 15.390970, , +46.3310, , 036.3, 7.07, 039.6, , 1006.46, , , 89.2, 9.7610, 
10:03:23, 222.1, 222.8, 43.452990, 15.392555, , +46.3458, , 037.7, 6.91, 040.3, , 1006.63, , , 92.2, 10.4659, 
10:04:23, 221.3, 222.3, 43.454521, 15.394163, , +46.3467, , 034.5, 7.11, 039.0, , 1006.52, , , 85.3, 9.9219, 
10:05:23, 220.5, 00.00, 43.456109, 15.395713, , +46.3609, , 033.4, 7.09, 038.7, , 1006.62, , , 85.1, 9.5618, 
10:06:23, 219.7, 220.8, 43.457696, 15.397316, , +46.3806, , 038.4, 7.10, 040.7, , 1006.62, , , 96.7, 10.0337, 
10:07:23, 219.3, 220.2, 43.459275, 15.398948, , +46.3659, , 036.1, 7.01, 038.7, , 1006.38, , , 80.0, 9.6091, 
10:08:23, 218.5, 219.6, 43.460893, 15.400516, , +46.3477, , 036.6, 7.23, 039.2, , 1006.53, , , 90.6, 10.0656, 
10:09:23, 217.9, 219.0, 43.462490, 15.402121, , +46.3488, , 036.3, 7.01, 039.5, , 1006.53, , , 95.5, 10.3084, 
10:10:23, 217.3, 218.5, 43.464056, 15.403683, , +��i�ʢj, , 035.9, 6.94, 038.9, , 1006.46, , , 92.9, 10.4017, 
10:11:23, 216.5, 217.5, 43.465620, 15.405276, , +46.3449, , 036.1, 7.26, 038.8, , 1006.65, , , 93.4, 10.7543, 
10:12:23, 216.0, 217.0, 43.467226, 15.406863, , +46.3454, , 035.6, 7.20, 039.4, , 1006.64, , , 100.1, 9.5257, 
10:13:23, 215.3, 216.4, 43.468825, 15.408483, , +46.3533, , 037.5, 7.24, 039.3, , 1006.66, , , 88.4, 9.7736, 
10:14:23, 214.6, 215.7, 43.470438, 15.410101, , +46.3405, , 037.6, 7.25, 040.3, , 1006.56, , , 101.1, 10.1140, 
10:15:23, 214.2, 215.3, 43.472015, 15.411776, , +46.3517, , 036.3, 7.15, 038.1, , 1006.53, , , 88.5, 9.8624, 
10:16:23, 213.7, 214.8, 43.473646, 15.413293, , +46.3413, , 031.4, 6.99, 031.9, , 1006.70, , , 78.7, 9.0814, 
10:17:23, 213.2, 214.2, 43.475280, 15.414743, , +46.3541, , 041.9, 6.92, 044.4, , 1006.62, , , 101.4, 10.4351, 
10:18:23, 212.6, 213.7, 43.476666, 15.416585, , +46.3498, , 046.2, 7.00, 047.8, , 1006.61, �, , 102.3, 10.9014, 
10:19:23, 212.3, 213.3, 43.478040, 15.418510, , +46.3560, , 044.4, 6.92, 046.5, , 1006.52, �, , 93.8, 10.1595, 
10:20:23, 211.5, 212.6, 43.479408, 15.420443, , +46.3619, , 046.5, 7.13, 048.5, , 1006.53, , , 94.6, 10.0126, 
10:21:23, 211.1, 212.1, 43.480755, 15.422386, , +46.3607, , 047.5, 7.01, 048.5, , 1006.63, , , 86.3, 10.0745, 
10:22:23, 210.6, 211.5, 43.482110, 15.424336, , +46.3634, , 048.5, 7.02, 048.5, , 1006.73, , , 86.0, 9.4902, 
10:23:23, 209.9, 211.0, 43.483425, 15.426279, , +46.3627, , 049.0, 7.01, 048.5, , 1006.55, , , 92.4, 9.6790, 
10:24:23, 209.6, 210.6, 43.484783, 15.428241, , +46.3712, , 045.7, 7.09, 047.4, , 1006.78, , , 90.6, 10.0184, 
10:25:24, 209.0, 210.2, 43.486188, 15.430253, , +46.3701, , 047.3, 7.15, 049.0, , 1006.66, , , 99.3, 9.3700, 
10:26:23, 208.6, 209.6, 43.487483, 15.432249, , +��i���j, , 048.7, 7.15, 048.6, , 1006.49, , , 90.4, 10.2049, 
10:27:23, 208.1, 225.5, 43.488846, 15.434234, , +46.3762, , 045.5, 7.19, 048.4, , 1006.51, , , 76.7, 10.4483, 
10:28:23, 207.8, 208.7, 43.490124, 15.436095, , +46.3706, , 046.0, 6.98, 047.1, , 1006.50, , , 85.8, 10.8760, 
10:29:23, 207.4, 208.3, 43.491480, 15.437930, , +46.3731, , 043.1, 6.98, 047.5, , 1006.59, , , 97.9, 11.2822, 
10:29:30, 207.4, 208.3, 43.491729, 15.438269, , +46.3639, , 045.1, 6.90, 047.8, , 1006.59, , , 98.8, 11.3640, 
10:30:29, 206.9, 207.9, 43.493038, 15.440151, , +46.3594, , 045.7, 6.91, 049.0, , 1006.50, , , 99.9, 11.5238, 
10:31:29, 206.4, 207.6, 43.494375, 15.442081, , +46.3575, , 045.6, 7.05, 047.8, , 1006.73, , , 92.8, 10.9950, 
10:32:29, 206.1, 221.9, 43.495731, 15.443973, , +46.3680, , 047.0, 7.00, 049.2, , 1006.54, , , 98.2, 10.9806, 
10:33:29, 205.6, 221.4, 43.497083, 15.445906, , +46.3551, , 044.6, 7.08, 047.9, , 1006.53, , , 91.3, 11.6394, 
10:34:29, 205.3, 206.3, 43.498428, 15.447846, , +46.3442, , 046.6, 6.93, 049.3, , 1006.53, , , 96.6, 10.8100, 
10:35:29, 205.0, 00.00, 43.499740, 15.449795, , +46.3566, , 047.7, 6.81, 047.7, , 1006.53, , , 84.7, 10.8488, 
10:36:29, 204.8, 221.9, 43.501098, 15.451731, , +46.3622, , 047.4, 7.04, 048.7, , 1006.77, , , 87.6, 10.6721, 
10:37:29, 204.3, 205.4, 43.502428, 15.453653, , +46.3518, , 046.8, 7.05, 048.5, , 1006.73, , , 90.9, 10.0356, 
10:38:29, 204.1, 205.0, 43.503783, 15.455590, , +46.3457, , 044.1, 7.08, 047.7, , 1006.72, , , 90.8, 10.1701, 
10:39:29, 203.8, 204.8, 43.505151, 15.457538, , +46.3359, , 046.1, 7.09, 047.7, , 1006.78, , , 95.0, 11.0081, 
10:40:29, 203.6, 204.6, 43.506514, 15.459481, , +46.3324, , 046.0, 7.02, 048.6, , 1006.68, , , 99.4, 10.9921, 
10:41:29, 203.3, 204.4, 43.507861, 15.461418, , +46.3407, , 046.9, 7.06, 048.7, , 1006.84, , , 92.0, 11.4570, 
10:42:29, 203.4, 204.2, 43.509173, 15.463380, , +46.3437, , 047.9, 6.88, 048.2, , 1006.85, , , 89.6, 10.2945, 
10:43:29, 203.0, 220.1, 43.510493, 15.465348, , +46.3472, , 046.9, 7.04, 047.9, , 1006.80, , , 88.5, 10.9124, 
10:44:29, 202.5, 203.6, 43.511828, 15.467321, , +46.3547, , 045.6, 7.24, 047.6, , 1006.81, , , 94.4, 11.8853, 
10:45:29, 202.4, 219.8, 43.513208, 15.469301, , +46.3610, , 044.9, 7.25, 047.0, , 1006.84, , , 94.2, 9.9305, 
10:46:29, 202.2, 203.3, 43.514550, 15.471330, , +��i���j, , 049.3, 7.24, 049.5, , 1006.76, , , 99.4, 10.5913, 
10:47:29, 202.0, 203.0, 43.515861, 15.473361, , +46.3504, , 046.9, 7.19, 047.9, , 1006.87, , , 92.0, 10.5941, 
10:48:29, 201.8, 219.2, 43.517223, 15.475305, , +46.3410, , 045.7, 7.05, 047.8, , 1006.72, , , 88.0, 11.0450, 
10:49:29, 201.7, 219.2, 43.518526, 15.477326, , +46.3372, , 049.9, 7.05, 051.1, , 1006.68, , , 101.0, 11.7095, 
10:50:29, 201.7, 202.5, 43.519771, 15.479433, , +��i���j, , 048.9, 7.21, 049.5, , 1006.83, , , 93.4, 11.3624, 
10:51:29, 201.2, 202.3, 43.521090, 15.481561, , +46.3315, , 051.4, 7.32, 051.1, , 1006.80, , , 93.2, 10.2006, 
10:52:29, 201.1, 202.2, 43.522360, 15.483731, , +46.3377, , 049.1, 7.37, 049.0, , 1006.92, , , 83.5, 9.3783, 
10:53:29, 201.1, 202.0, 43.523671, 15.485836, , +46.3470, , 049.1, 7.32, 050.4, , 1006.95, , , 90.8, 9.8461, 
10:54:29, 200.9, 218.5, 43.524963, 15.487933, , +��i���j, , 049.1, 7.15, 050.3, , 1006.89, , , 94.9, 9.9544, 
10:55:29, 200.7, 00.00, 43.526275, 15.490010, , +46.3441, , 050.2, 7.26, 050.6, , 1006.94, , , 89.8, 10.2494, 
10:56:29, 200.9, 201.7, 43.527553, 15.492158, , +46.3482, , 050.8, 7.25, 050.1, , 1006.83, , , 92.3, 10.4095, 
10:57:29, 200.3, 201.4, 43.528878, 15.494258, , +46.3526, , 048.9, 7.39, 049.2, , 1006.86, , , 89.3, 9.5700, 
10:58:30, 200.6, 201.5, 43.530193, 15.496408, , +��i���j, , 051.3, 7.31, 052.1, , 1006.91, , , 101.6, 11.0559, 
10:59:29, 200.4, 201.4, 43.531448, 15.498595, , +��i���j, , 052.5, 7.43, 052.1, , 1006.80, , , 92.0, 10.8338, 
11:00:29, 200.4, 201.4, 43.532678, 15.500768, , +46.3482, , 052.1, 7.18, 051.6, , 1006.62, , , 85.5, 10.6534, 
11:01:29, 200.2, 201.2, 43.533943, 15.502903, , +46.3496, , 051.1, 7.29, 050.5, , 1006.83, , , 82.9, 10.9634, 
11:02:29, 200.0, 201.2, 43.535205, 15.505091, , +��i���j, , 053.4, 7.37, 051.8, , 1006.78, , , 91.6, 10.0401, 
11:03:29, 200.3, 201.2, 43.536448, 15.507305, , +46.3495, , 050.8, 7.38, 050.8, , 1006.82, , , 79.1, 10.3702, 
11:04:29, 200.1, 00.00, 43.537721, 15.509528, , +46.3451, , 051.6, 7.51, 051.1, , 1006.95, , , 83.0, 9.8576, 
11:05:29, 200.1, 201.2, 43.539026, 15.511748, , +46.3435, , 050.7, 7.40, 050.9, , 1006.93, , , 87.5, 9.6003, 
11:06:29, 200.3, 201.3, 43.540321, 15.513943, , +46.3446, , 052.3, 7.38, 051.3, , 1006.89, , , 94.3, 10.3616, 
11:07:29, 200.4, 00.00, 43.541580, 15.516155, , +46.3277, , 051.1, 7.32, 051.0, , 1007.05, , , 95.2, 10.4171, 
11:08:29, 200.6, 201.7, 43.542878, 15.518320, , +46.3412, , 050.3, 7.42, 051.6, , 1006.86, , , 78.9, 8.8473, 
11:09:29, 200.7, 201.7, 43.544150, 15.520511, , +46.3404, , 050.3, 7.36, 051.2, , 1006.96, , , 90.8, 10.6094, 
11:10:29, 200.6, 201.6, 43.545433, 15.522745, , +46.3446, , 050.3, 7.47, 050.6, , 1007.02, , , 83.3, 9.9596, 
11:11:29, 200.7, 218.4, 43.546790, 15.524961, , +46.3340, , 051.1, 7.57, 050.2, , 1007.02, , , 86.7, 9.2157, 
11:12:29, 201.1, 202.1, 43.548121, 15.527176, , +46.3334, , 050.9, 7.56, T, , 1007.15, , , 103.6, 9.3168, 
11:13:29, 201.4, 202.3, 43.549370, 15.529435, , +��i���j, , 051.8, 7.33, 050.9, , 1006.97, , , 92.6, 8.7332, 
11:14:29, 201.5, 202.5, 43.550518, 15.531396, , +46.3264, , 050.9, 7.39, 051.0, , 1007.14, , , 76.9, 9.4090, 
11:15:29, 201.5, 202.7, 43.551786, 15.533576, , +46.3258, , 052.3, 7.22, 051.5, , 1006.93, , , 85.6, 9.8817, 
11:15:51, 201.7, 202.7, 43.552371, 15.534601, , +46.3292, , 051.3, 7.36, 051.2, , 1006.99, , , 86.1, 9.8973, 
11:16:50, 201.5, 202.8, 43.553431, 15.536466, , +46.3289, , 053.2, 7.46, 051.3, , 1007.08, , , 76.5, 11.2221, 
11:17:50, 202.2, 203.1, 43.554726, 15.538675, , +46.3196, , 051.3, 7.42, 050.6, , 1006.99, , , 72.5, 8.7524, 
11:18:50, 202.3, 203.3, 43.556025, 15.540868, , +46.3080, , 050.1, 7.39, 051.1, , 1007.04, , , 84.4, 9.9333, 
11:19:50, 202.6, 203.6, 43.557278, 15.543045, , +46.2832, , 053.1, 7.22, 051.8, , 1006.78, , , 80.8, 9.0949, 
11:20:50, 202.4, 203.8, 43.558531, 15.545176, , +46.2748, , 051.6, 7.13, 051.3, , 1007.06, , , 72.7, 11.1185, 
11:21:50, 203.1, 204.0, 43.559761, 15.547325, , +46.3078, , 051.9, 7.11, 051.3, , 1007.12, , , 80.1, 10.7653, 
11:22:50, 203.4, 204.4, 43.560990, 15.549478, , +46.3174, , 051.6, 7.19, 051.4, , 1007.15, , , 82.3, 10.8329, 
11:23:50, 204.2, 205.1, 43.562250, 15.551658, , +46.3258, , 049.9, 7.33, 050.9, , 1007.25, , , 76.4, 9.5286, 
11:24:50, 204.8, 205.7, 43.563608, 15.554041, , +46.3206, , 052.3, 7.32, 051.7, , 1007.13, , , 82.3, 8.3208, 
